Weather History for Vitoria, Spain

Change the Weather History Date:

Tuesday, March 13, 2012

  Actual Average Record
Temperature  
Mean Temperature 53 °F -  
Max Temperature 71 °F 59 °F 80 °F (2003)
Min Temperature 35 °F 37 °F 24 °F (2005)
Degree Days  
Heating Degree Days 12    
Growing Degree Days 3 (Base 50)    
Moisture  
Dew Point 42 °F    
Average Humidity 83    
Maximum Humidity 100    
Minimum Humidity 35    
Precipitation  
Precipitation 0.00 in - - ()
Sea Level Pressure  
Sea Level Pressure 30.27 in    
Wind  
Wind Speed 1 mph ()    
Max Wind Speed 14 mph    
Max Gust Speed -    
Visibility 1.7 miles    
Events Fog    
Averages and records for this station are not official NWS values.
T = Trace of Precipitation, MM = Missing Value Source: Averaged Metar Reports

Daily Weather History Graph

Daily Weather History Graph

Search for Another Location

Airport:

Trip Planner

Search our weather history database for the weather conditions in past years. The results will help you decide how hot, cold, wet, or windy it might be!

Date:

Astronomy

Mar. 13, 2012 Rise Set
Actual Time 7:25 AM CET 7:15 PM CET
Civil Twilight 6:57 AM CET 7:43 PM CET
Nautical Twilight 6:24 AM CET 8:16 PM CET
Astronomical Twilight 5:51 AM CET 8:49 PM CET
Moon 12:40 AM CET (3/13) 10:16 AM CET (3/13)
Length of Visible Light 12h 45m
Length of Day
11h 49m
Waning Gibbous, 68% of the Moon is Illuminated
Mar 13
Waning Gibbous
Mar 15
Last Quarter
Mar 22
New
Mar 30
First Quarter
Apr 6
Full

Hourly Weather History & Observations

Time (CET) Temp. Windchill Dew Point Humidity Pressure Visibility Wind Dir Wind Speed Gust Speed Precip Events Conditions
12:00 AM 41.0 °F - 39.2 °F 93% 30.30 in 3.1 mi Variable 1.2 mph - N/A   Mist
12:30 AM 39.2 °F - 37.4 °F 93% 30.30 in 3.1 mi NE 1.2 mph - N/A   Mist
1:00 AM 39.2 °F - 37.4 °F 93% 30.30 in 1.9 mi Calm Calm - N/A   Scattered Clouds
1:30 AM 37.4 °F - 37.4 °F 100% 30.30 in 0.9 mi NNE 1.2 mph - N/A   Scattered Clouds
2:00 AM 37.4 °F - 35.6 °F 93% 30.30 in 0.9 mi Calm Calm - N/A   Partly Cloudy
2:30 AM 37.4 °F - 35.6 °F 93% 30.30 in 0.9 mi Calm Calm - N/A   Partly Cloudy
3:00 AM 35.6 °F - 33.8 °F 93% 30.30 in 0.9 mi East 1.2 mph - N/A Fog Scattered Clouds
3:30 AM 35.6 °F - 35.6 °F 100% 30.30 in 0.5 mi Calm Calm - N/A Fog Fog
3:49 AM 37.4 °F - 37.4 °F 100% 30.30 in 0.6 mi North 2.3 mph - N/A Fog Fog
4:00 AM 37.4 °F - 37.4 °F 100% 30.30 in 0.6 mi North 1.2 mph - N/A Fog Fog
4:30 AM 39.2 °F - 37.4 °F 93% 30.27 in 0.6 mi Calm Calm - N/A Fog Fog
4:41 AM 39.2 °F - 39.2 °F 100% 30.27 in 0.4 mi Calm Calm - N/A Fog Fog
5:00 AM 39.2 °F - 39.2 °F 100% 30.27 in 0.1 mi Variable 1.2 mph - N/A Fog Fog
5:02 AM 39.2 °F - 39.2 °F 100% 30.27 in 0.1 mi Variable 1.2 mph - N/A Fog Fog
5:30 AM 39.2 °F - 39.2 °F 100% 30.27 in 0.1 mi Calm Calm - N/A Fog Fog
6:00 AM 39.2 °F - 39.2 °F 100% 30.30 in 0.1 mi Calm Calm - N/A Fog Fog
6:30 AM 41.0 °F - 39.2 °F 93% 30.30 in 0.1 mi NW 1.2 mph - N/A Fog Fog
7:00 AM 39.2 °F - 39.2 °F 100% 30.30 in 0.1 mi Calm Calm - N/A Fog Fog
7:30 AM 39.2 °F - 39.2 °F 100% 30.30 in 0.1 mi Variable 1.2 mph - N/A Fog Fog
8:00 AM 39.2 °F - 39.2 °F 100% 30.30 in 0.1 mi Calm Calm - N/A Fog Fog
8:30 AM 39.2 °F - 39.2 °F 100% 30.30 in 0.1 mi Calm Calm - N/A Fog Fog
9:00 AM 39.2 °F - 39.2 °F 100% 30.30 in 0.1 mi Variable 1.2 mph - N/A Fog Fog
9:30 AM 41.0 °F - 41.0 °F 100% 30.30 in 0.1 mi Calm Calm - N/A Fog Fog
10:00 AM 41.0 °F - 41.0 °F 100% 30.30 in 0.1 mi Calm Calm - N/A Fog Fog
10:30 AM 41.0 °F - 41.0 °F 100% 30.33 in 0.2 mi Calm Calm - N/A Fog Fog
10:49 AM 42.8 °F - 42.8 °F 100% 30.33 in 0.4 mi Calm Calm - N/A Fog Fog
11:00 AM 42.8 °F - 42.8 °F 100% 30.33 in 0.5 mi Calm Calm - N/A Fog Fog
1:00 PM 53.6 °F - 50.0 °F 88% 30.30 in 2.5 mi Calm Calm - N/A   Scattered Clouds
1:30 PM 57.2 °F - 50.0 °F 77% 30.27 in 3.1 mi Calm Calm - N/A   Mist
2:00 PM 62.6 °F - 50.0 °F 63% 30.27 in 3.1 mi Calm Calm - N/A   Mist
2:30 PM 66.2 °F - 44.6 °F 46% 30.24 in 3.7 mi Calm Calm - N/A   Unknown
3:00 PM 68.0 °F - 48.2 °F 49% 30.24 in 5.6 mi East 2.3 mph - N/A   Unknown
3:30 PM 69.8 °F - 46.4 °F 43% 30.21 in - Calm Calm - N/A   Clear
4:00 PM 69.8 °F - 44.6 °F 40% 30.21 in - Variable 1.2 mph - N/A   Clear
4:30 PM 71.6 °F - 42.8 °F 35% 30.21 in - Variable 2.3 mph - N/A   Clear
5:00 PM 71.6 °F - 44.6 °F 38% 30.21 in - NE 10.4 mph - N/A   Clear
5:30 PM 69.8 °F - 46.4 °F 43% 30.21 in - NE 13.8 mph - N/A   Clear
6:00 PM 68.0 °F - 46.4 °F 46% 30.21 in - NNE 11.5 mph - N/A   Clear
6:30 PM 66.2 °F - 46.4 °F 49% 30.21 in - NNE 10.4 mph - N/A   Clear
7:00 PM 62.6 °F - 46.4 °F 55% 30.24 in - NNE 6.9 mph - N/A   Clear
7:30 PM 57.2 °F - 44.6 °F 63% 30.24 in - NE 8.1 mph - N/A   Clear
8:00 PM 53.6 °F - 44.6 °F 72% 30.24 in - NE 6.9 mph - N/A   Clear
8:30 PM 53.6 °F - 42.8 °F 67% 30.24 in - NE 1.2 mph - N/A   Clear
9:00 PM 48.2 °F - 44.6 °F 87% 30.24 in - Variable 1.2 mph - N/A   Clear
9:30 PM 48.2 °F - 44.6 °F 87% 30.27 in 5.6 mi ESE 2.3 mph - N/A   Unknown
10:00 PM 46.4 °F 45.2 °F 42.8 °F 87% 30.27 in 5.6 mi ENE 3.5 mph - N/A   Unknown
10:30 PM 48.2 °F - 44.6 °F 87% 30.27 in 5.6 mi ENE 1.2 mph - N/A   Unknown
11:00 PM 42.8 °F - 39.2 °F 87% 30.27 in 5.6 mi Calm Calm - N/A   Unknown
11:30 PM 42.8 °F - 41.0 °F 93% 30.27 in 5.6 mi Calm Calm - N/A   Unknown